• In Germany
  • List of Countries
  • For 7 days
  • Water Temperature
  • Satellite Maps
  • Weather Map
  • Weather Widgets
  • user-avatar
    Login

    Hourly Weather Zgierz

    Today, 24 October, Tuesday

    Time Temperature Precipitation Wind Pressure Humidity
    00:00 +6°C° 0 mm 2 mps 747 mmHg 92%
    01:00 +5°C° 0 mm 2 mps 747 mmHg 93%
    02:00 +5°C° 0 mm 2 mps 747 mmHg 93%
    03:00 +5°C° 0 mm 2 mps 748 mmHg 92%
    04:00 +4°C° 0 mm 2 mps 748 mmHg 92%
    05:00 +4°C° 0 mm 2 mps 748 mmHg 92%
    06:00 +4°C° 0 mm 2 mps 749 mmHg 91%
    07:00 +4°C° 0 mm 2 mps 749 mmHg 91%
    08:00 +5°C° 0 mm 2 mps 750 mmHg 85%
    09:00 +6°C° 0 mm 2 mps 750 mmHg 80%
    10:00 +7°C° 0 mm 2 mps 751 mmHg 75%
    11:00 +8°C° 0 mm 2 mps 751 mmHg 72%
    12:00 +8°C° 0 mm 2 mps 751 mmHg 69%
    13:00 +9°C° 0 mm 2 mps 751 mmHg 66%
    14:00 +10°C° 0 mm 1 mps 751 mmHg 68%
    15:00 +10°C° 0 mm 1 mps 751 mmHg 70%
    16:00 +9°C° 0 mm 1 mps 751 mmHg 72%
    17:00 +7°C° 0 mm 2 mps 751 mmHg 75%
    18:00 +7°C° 0 mm 2 mps 751 mmHg 77%
    19:00 +6°C° 0 mm 2 mps 752 mmHg 80%
    20:00 +6°C° 0 mm 2 mps 752 mmHg 81%
    21:00 +4°C° 0 mm 3 mps 752 mmHg 82%
    22:00 +4°C° 0 mm 3 mps 752 mmHg 83%
    23:00 +4°C° 0 mm 3 mps 752 mmHg 84%

    Tomorrow, 25 October, Wednesday

    Time Temperature Precipitation Wind Pressure Humidity
    00:00 +4°C° 0 mm 3 mps 752 mmHg 85%
    01:00 +4°C° 0 mm 3 mps 752 mmHg 86%
    02:00 +4°C° 0 mm 3 mps 751 mmHg 85%
    03:00 +4°C° 0 mm 3 mps 751 mmHg 84%
    04:00 +4°C° 0 mm 4 mps 751 mmHg 84%
    05:00 +4°C° 0 mm 4 mps 750 mmHg 83%
    06:00 +3°C° 0 mm 5 mps 750 mmHg 82%
    07:00 +3°C° 0 mm 5 mps 750 mmHg 81%
    08:00 +5°C° 0.2 mm 5 mps 750 mmHg 78%
    09:00 +5°C° 0.2 mm 6 mps 749 mmHg 75%
    10:00 +7°C° 0.2 mm 6 mps 749 mmHg 72%
    11:00 +7°C° 0.8 mm 6 mps 749 mmHg 74%
    12:00 +7°C° 0.8 mm 6 mps 748 mmHg 75%
    13:00 +7°C° 0.8 mm 6 mps 748 mmHg 77%
    14:00 +8°C° 0.1 mm 5 mps 747 mmHg 78%
    15:00 +9°C° 0.1 mm 5 mps 747 mmHg 79%
    16:00 +9°C° 0.1 mm 5 mps 747 mmHg 80%
    17:00 +10°C° 0.1 mm 5 mps 747 mmHg 83%
    18:00 +10°C° 0.1 mm 5 mps 747 mmHg 86%
    19:00 +12°C° 0.1 mm 5 mps 747 mmHg 88%
    20:00 +12°C° 0.1 mm 5 mps 747 mmHg 88%
    21:00 +12°C° 0.1 mm 5 mps 747 mmHg 88%
    22:00 +12°C° 0.1 mm 5 mps 747 mmHg 88%
    23:00 +12°C° 0 mm 5 mps 748 mmHg 90%

    Day after tomorrow, 26 October, Thursday

    Time Temperature Precipitation Wind Pressure Humidity
    00:00 +12°C° 0 mm 5 mps 748 mmHg 91%
    01:00 +10°C° 0 mm 5 mps 748 mmHg 93%
    02:00 +11°C° 0 mm 4 mps 748 mmHg 94%
    03:00 +10°C° 0 mm 4 mps 748 mmHg 95%
    04:00 +10°C° 0 mm 4 mps 748 mmHg 96%
    05:00 +10°C° 0 mm 4 mps 748 mmHg 95%
    06:00 +10°C° 0 mm 4 mps 748 mmHg 95%
    07:00 +10°C° 0 mm 4 mps 748 mmHg 94%
    08:00 +11°C° 0 mm 4 mps 748 mmHg 90%
    09:00 +11°C° 0 mm 4 mps 748 mmHg 86%
    10:00 +12°C° 0 mm 5 mps 749 mmHg 82%
    11:00 +12°C° 0 mm 5 mps 748 mmHg 79%
    12:00 +13°C° 0 mm 5 mps 748 mmHg 75%
    13:00 +14°C° 0 mm 5 mps 748 mmHg 72%
    14:00 +13°C° 0 mm 5 mps 747 mmHg 74%
    15:00 +13°C° 0 mm 4 mps 747 mmHg 76%
    16:00 +12°C° 0 mm 3 mps 747 mmHg 77%
    17:00 +12°C° 0 mm 3 mps 747 mmHg 81%
    18:00 +11°C° 0 mm 3 mps 747 mmHg 85%
    19:00 +10°C° 0 mm 3 mps 746 mmHg 89%
    20:00 +10°C° 0 mm 3 mps 746 mmHg 90%
    21:00 +11°C° 0 mm 3 mps 746 mmHg 91%
    22:00 +11°C° 0 mm 3 mps 745 mmHg 92%
    23:00 +11°C° 0.7 mm 3 mps 745 mmHg 93%

    27 October, Friday

    Time Temperature Precipitation Wind Pressure Humidity
    00:00 +11°C° 0.7 mm 3 mps 744 mmHg 94%
    01:00 +11°C° 0.7 mm 3 mps 744 mmHg 96%
    02:00 +11°C° 0.6 mm 3 mps 743 mmHg 95%
    03:00 +11°C° 0.6 mm 3 mps 742 mmHg 95%
    04:00 +10°C° 0.6 mm 3 mps 742 mmHg 94%
    05:00 +10°C° 0.2 mm 4 mps 741 mmHg 94%
    06:00 +10°C° 0.2 mm 4 mps 741 mmHg 94%
    07:00 +10°C° 0.2 mm 4 mps 741 mmHg 93%
    08:00 +10°C° 0.2 mm 4 mps 740 mmHg 90%
    09:00 +9°C° 0.2 mm 5 mps 740 mmHg 87%
    10:00 +10°C° 0.2 mm 5 mps 740 mmHg 83%
    11:00 +10°C° 0.4 mm 5 mps 739 mmHg 82%
    12:00 +9°C° 0.4 mm 5 mps 739 mmHg 80%
    13:00 +9°C° 0.4 mm 5 mps 738 mmHg 79%
    14:00 +9°C° 0.2 mm 5 mps 738 mmHg 79%
    15:00 +9°C° 0.2 mm 5 mps 738 mmHg 79%
    16:00 +8°C° 0.2 mm 5 mps 737 mmHg 79%
    17:00 +8°C° 0.3 mm 5 mps 737 mmHg 81%
    18:00 +8°C° 0.3 mm 5 mps 737 mmHg 83%
    19:00 +7°C° 0.3 mm 6 mps 737 mmHg 85%
    20:00 +7°C° 0.2 mm 6 mps 737 mmHg 85%
    21:00 +7°C° 0.2 mm 6 mps 737 mmHg 85%
    22:00 +5°C° 0.2 mm 6 mps 737 mmHg 85%
    23:00 +6°C° 0.3 mm 7 mps 736 mmHg 84%

    28 October, Saturday

    Time Temperature Precipitation Wind Pressure Humidity
    00:00 +6°C° 0.3 mm 7 mps 736 mmHg 84%
    01:00 +6°C° 0.3 mm 8 mps 736 mmHg 84%
    02:00 +6°C° 0.3 mm 8 mps 736 mmHg 84%
    03:00 +6°C° 0.3 mm 8 mps 736 mmHg 84%
    04:00 +6°C° 0.3 mm 7 mps 736 mmHg 84%
    05:00 +6°C° 0.1 mm 7 mps 737 mmHg 85%
    06:00 +5°C° 0.1 mm 6 mps 737 mmHg 86%
    07:00 +5°C° 0.1 mm 6 mps 737 mmHg 87%
    08:00 +5°C° 0.1 mm 6 mps 737 mmHg 83%
    09:00 +7°C° 0.1 mm 6 mps 737 mmHg 78%
    10:00 +7°C° 0.1 mm 6 mps 736 mmHg 74%
    11:00 +6°C° 0.1 mm 7 mps 736 mmHg 74%
    12:00 +8°C° 0.1 mm 7 mps 735 mmHg 73%
    13:00 +8°C° 0.1 mm 7 mps 734 mmHg 73%
    14:00 +6°C° 0.3 mm 7 mps 733 mmHg 75%
    15:00 +7°C° 0.3 mm 6 mps 733 mmHg 77%
    16:00 +7°C° 0.3 mm 6 mps 732 mmHg 79%
    17:00 +5°C° 0.2 mm 6 mps 731 mmHg 80%
    18:00 +5°C° 0.2 mm 6 mps 731 mmHg 81%
    19:00 +5°C° 0.2 mm 6 mps 730 mmHg 81%
    20:00 +6°C° 0.1 mm 5 mps 730 mmHg 82%
    21:00 +6°C° 0.1 mm 5 mps 729 mmHg 82%
    22:00 +5°C° 0.1 mm 5 mps 728 mmHg 82%
    23:00 +5°C° 0.2 mm 5 mps 728 mmHg 83%

    29 October, Sunday

    Time Temperature Precipitation Wind Pressure Humidity
    00:00 +5°C° 0.2 mm 5 mps 727 mmHg 83%
    01:00 +5°C° 0.2 mm 5 mps 727 mmHg 83%
    02:00 +5°C° 0.1 mm 5 mps 727 mmHg 84%
    03:00 +5°C° 0.1 mm 4 mps 726 mmHg 84%
    04:00 +5°C° 0.1 mm 4 mps 726 mmHg 84%
    05:00 +5°C° 0 mm 3 mps 727 mmHg 85%
    06:00 +4°C° 0 mm 3 mps 727 mmHg 86%
    07:00 +5°C° 0 mm 2 mps 727 mmHg 88%
    08:00 +6°C° 0 mm 2 mps 727 mmHg 84%
    09:00 +7°C° 0 mm 2 mps 728 mmHg 80%
    10:00 +8°C° 0 mm 2 mps 728 mmHg 76%
    11:00 +8°C° 0 mm 2 mps 729 mmHg 75%
    12:00 +8°C° 0 mm 2 mps 729 mmHg 73%
    13:00 +9°C° 0 mm 2 mps 729 mmHg 71%
    14:00 +9°C° 0.1 mm 1 mps 730 mmHg 73%
    15:00 +9°C° 0.1 mm 1 mps 730 mmHg 75%
    16:00 +9°C° 0.1 mm 1 mps 731 mmHg 77%
    17:00 +8°C° 0.1 mm 1 mps 731 mmHg 79%
    18:00 +8°C° 0.1 mm 1 mps 732 mmHg 81%
    19:00 +8°C° 0.1 mm 1 mps 733 mmHg 83%
    20:00 +7°C° 0 mm 1 mps 733 mmHg 85%
    21:00 +6°C° 0 mm 2 mps 734 mmHg 86%
    22:00 +6°C° 0 mm 2 mps 734 mmHg 88%
    23:00 +6°C° 0 mm 2 mps 735 mmHg 89%

    30 October, Monday

    Time Temperature Precipitation Wind Pressure Humidity
    00:00 +5°C° 0 mm 2 mps 735 mmHg 91%
    01:00 +4°C° 0 mm 3 mps 735 mmHg 92%
    02:00 +4°C° 0.1 mm 3 mps 736 mmHg 91%
    03:00 +4°C° 0.1 mm 3 mps 736 mmHg 91%
    04:00 +4°C° 0.1 mm 4 mps 737 mmHg 90%
    05:00 +4°C° 0 mm 4 mps 737 mmHg 90%
    06:00 +4°C° 0 mm 4 mps 737 mmHg 89%
    07:00 +3°C° 0 mm 4 mps 738 mmHg 89%
    08:00 +4°C° 0 mm 4 mps 738 mmHg 85%
    09:00 +5°C° 0 mm 4 mps 738 mmHg 80%
    10:00 +6°C° 0 mm 4 mps 739 mmHg 76%
    11:00 +6°C° 0 mm 4 mps 739 mmHg 73%
    12:00 +7°C° 0 mm 5 mps 738 mmHg 70%
    13:00 +7°C° 0 mm 5 mps 738 mmHg 67%
    14:00 +7°C° 0 mm 5 mps 738 mmHg 70%
    15:00 +6°C° 0 mm 5 mps 738 mmHg 74%
    16:00 +6°C° 0 mm 5 mps 738 mmHg 77%
    17:00 +6°C° 0 mm 5 mps 738 mmHg 78%
    18:00 +6°C° 0 mm 5 mps 738 mmHg 79%
    19:00 +5°C° 0 mm 4 mps 738 mmHg 80%
    20:00 +6°C° 0 mm 5 mps 737 mmHg 82%
    21:00 +6°C° 0 mm 5 mps 737 mmHg 83%
    22:00 +5°C° 0 mm 6 mps 737 mmHg 85%
    23:00 +5°C° 0.1 mm 6 mps 736 mmHg 85%
    Show more